Time,TemperatureF,DewpointF,PressureIn,WindDirection,WindDirectionDegrees,WindSpeedMPH,WindSpeedGustMPH,Humidity,HourlyPrecipIn,Conditions,Clouds,dailyrainin,SoftwareType,DateUTC
2013-05-18 00:01:00,66.1,53.2,30.20,SSW,201,0.0,0.0,64,0.00,,,0.00,WX3IN1Plus v1.30,2013-05-18 04:01:00,
2013-05-18 00:02:00,66.0,52.8,30.20,SSW,201,0.0,0.0,64,0.00,,,0.00,WX3IN1Plus v1.30,2013-05-18 04:02:00,
2013-05-18 00:07:00,65.9,53.6,30.20,SSW,201,0.0,0.0,65,0.00,,,0.00,WX3IN1Plus v1.30,2013-05-18 04:07:00,
2013-05-18 00:12:00,65.9,53.6,30.20,SSW,201,0.0,0.0,65,0.00,,,0.00,WX3IN1Plus v1.30,2013-05-18 04:12:00,
2013-05-18 00:17:00,65.7,53.6,30.20,SSW,201,0.0,0.0,65,0.00,,,0.00,WX3IN1Plus v1.30,2013-05-18 04:17:00,
2013-05-18 00:22:00,65.5,53.2,30.20,SSW,201,0.0,0.0,65,0.00,,,0.00,WX3IN1Plus v1.30,2013-05-18 04:22:00,
2013-05-18 00:27:00,65.6,53.2,30.20,SSW,201,0.0,0.0,65,0.00,,,0.00,WX3IN1Plus v1.30,2013-05-18 04:27:00,
2013-05-18 00:32:00,65.4,52.8,30.20,SSW,201,0.0,0.0,65,0.00,,,0.00,WX3IN1Plus v1.30,2013-05-18 04:32:00,
2013-05-18 00:37:00,65.6,53.2,30.20,SSE,158,0.0,3.2,65,0.00,,,0.00,WX3IN1Plus v1.30,2013-05-18 04:37:00,
2013-05-18 00:42:00,65.3,52.8,30.20,SSW,196,2.2,2.2,65,0.00,,,0.00,WX3IN1Plus v1.30,2013-05-18 04:42:00,
2013-05-18 00:47:00,65.3,52.8,30.20,ESE,112,1.4,2.5,65,0.00,,,0.00,WX3IN1Plus v1.30,2013-05-18 04:47:00,
2013-05-18 00:52:00,65.2,52.3,30.20,East,101,0.0,4.4,64,0.00,,,0.00,WX3IN1Plus v1.30,2013-05-18 04:52:00,
2013-05-18 00:57:00,65.0,52.1,30.20,SW,217,0.0,1.4,64,0.00,,,0.00,WX3IN1Plus v1.30,2013-05-18 04:57:00,
2013-05-18 01:02:00,65.2,52.1,30.21,SW,217,0.0,0.0,63,0.00,,,0.00,WX3IN1Plus v1.30,2013-05-18 05:02:00,
2013-05-18 01:07:00,65.4,51.6,30.21,WSW,243,1.9,1.9,62,0.00,,,0.00,WX3IN1Plus v1.30,2013-05-18 05:07:00,
2013-05-18 01:12:00,65.4,50.7,30.21,WSW,247,2.1,5.4,60,0.00,,,0.00,WX3IN1Plus v1.30,2013-05-18 05:12:00,
2013-05-18 01:17:00,65.2,49.4,30.20,SW,225,0.0,3.7,57,0.00,,,0.00,WX3IN1Plus v1.30,2013-05-18 05:17:00,
2013-05-18 01:22:00,65.1,48.2,30.20,WSW,247,0.7,6.1,55,0.00,,,0.00,WX3IN1Plus v1.30,2013-05-18 05:22:00,
2013-05-18 01:27:00,65.2,47.8,30.20,West,265,0.0,4.7,54,0.00,,,0.00,WX3IN1Plus v1.30,2013-05-18 05:27:00,
2013-05-18 01:32:00,65.2,47.6,30.20,South,188,2.7,5.9,53,0.00,,,0.00,WX3IN1Plus v1.30,2013-05-18 05:32:00,
2013-05-18 01:37:00,65.2,47.1,30.20,South,170,0.9,5.2,52,0.00,,,0.00,WX3IN1Plus v1.30,2013-05-18 05:37:00,
2013-05-18 01:42:00,65.2,47.1,30.21,WSW,243,4.0,4.9,52,0.00,,,0.00,WX3IN1Plus v1.30,2013-05-18 05:42:00,
2013-05-18 01:48:00,65.1,46.7,30.21,SW,226,0.0,4.8,52,0.00,,,0.00,WX3IN1Plus v1.30,2013-05-18 05:48:00,
2013-05-18 01:53:00,64.9,46.5,30.21,SW,222,0.0,3.9,52,0.00,,,0.00,WX3IN1Plus v1.30,2013-05-18 05:53:00,
2013-05-18 01:58:00,65.1,46.2,30.22,SW,236,0.6,4.0,51,0.00,,,0.00,WX3IN1Plus v1.30,2013-05-18 05:58:00,
2013-05-18 02:03:00,65.2,46.5,30.21,SSE,151,0.0,4.8,51,0.00,,,0.00,WX3IN1Plus v1.30,2013-05-18 06:03:00,
2013-05-18 02:08:00,65.0,46.2,30.21,West,278,0.0,5.0,51,0.00,,,0.00,WX3IN1Plus v1.30,2013-05-18 06:08:00,
2013-05-18 02:13:00,64.8,46.0,30.21,WSW,246,1.6,6.8,51,0.00,,,0.00,WX3IN1Plus v1.30,2013-05-18 06:13:00,
2013-05-18 02:18:00,64.9,46.0,30.21,SSW,195,0.0,1.8,51,0.00,,,0.00,WX3IN1Plus v1.30,2013-05-18 06:18:00,
2013-05-18 02:23:00,65.0,46.7,30.21,South,185,0.0,5.5,52,0.00,,,0.00,WX3IN1Plus v1.30,2013-05-18 06:23:00,
2013-05-18 02:28:00,64.8,46.5,30.21,SSE,164,0.0,0.8,52,0.00,,,0.00,WX3IN1Plus v1.30,2013-05-18 06:28:00,
2013-05-18 02:33:00,64.7,46.5,30.21,SSE,149,3.1,3.7,52,0.00,,,0.00,WX3IN1Plus v1.30,2013-05-18 06:33:00,
2013-05-18 02:38:00,64.8,46.5,30.21,SSW,192,0.7,4.9,52,0.00,,,0.00,WX3IN1Plus v1.30,2013-05-18 06:38:00,
2013-05-18 02:43:00,64.8,47.1,30.21,ENE,67,0.0,2.7,53,0.00,,,0.00,WX3IN1Plus v1.30,2013-05-18 06:43:00,
2013-05-18 02:48:00,64.6,47.3,30.21,West,271,0.8,4.9,54,0.00,,,0.00,WX3IN1Plus v1.30,2013-05-18 06:48:00,
2013-05-18 02:53:00,64.7,47.8,30.21,ESE,104,1.4,7.1,55,0.00,,,0.00,WX3IN1Plus v1.30,2013-05-18 06:53:00,
2013-05-18 02:58:00,64.4,48.2,30.21,SSW,205,2.5,5.1,56,0.00,,,0.00,WX3IN1Plus v1.30,2013-05-18 06:58:00,
2013-05-18 03:03:00,64.3,47.8,30.21,South,172,0.0,3.0,56,0.00,,,0.00,WX3IN1Plus v1.30,2013-05-18 07:03:00,
2013-05-18 03:08:00,64.4,48.5,30.21,SSE,163,0.0,1.1,57,0.00,,,0.00,WX3IN1Plus v1.30,2013-05-18 07:08:00,
2013-05-18 03:13:00,64.4,49.1,30.21,SE,135,0.0,1.9,58,0.00,,,0.00,WX3IN1Plus v1.30,2013-05-18 07:13:00,
2013-05-18 03:18:00,64.3,49.1,30.21,SSE,163,0.6,0.6,59,0.00,,,0.00,WX3IN1Plus v1.30,2013-05-18 07:18:00,
2013-05-18 03:23:00,64.2,49.1,30.21,SE,140,0.0,3.2,59,0.00,,,0.00,WX3IN1Plus v1.30,2013-05-18 07:23:00,
2013-05-18 03:28:00,64.1,49.1,30.21,South,175,2.6,3.6,59,0.00,,,0.00,WX3IN1Plus v1.30,2013-05-18 07:28:00,
2013-05-18 03:33:00,64.1,49.1,30.21,East,88,0.6,2.8,59,0.00,,,0.00,WX3IN1Plus v1.30,2013-05-18 07:33:00,
2013-05-18 03:38:00,63.9,49.4,30.21,SSE,157,0.4,2.2,60,0.00,,,0.00,WX3IN1Plus v1.30,2013-05-18 07:38:00,
2013-05-18 03:43:00,63.7,49.4,30.21,NNE,26,1.3,4.3,60,0.00,,,0.00,WX3IN1Plus v1.30,2013-05-18 07:43:00,
2013-05-18 03:48:00,63.4,48.9,30.21,SE,125,0.0,3.7,60,0.00,,,0.00,WX3IN1Plus v1.30,2013-05-18 07:48:00,
2013-05-18 03:53:00,63.5,49.1,30.22,East,91,0.0,2.8,60,0.00,,,0.00,WX3IN1Plus v1.30,2013-05-18 07:53:00,
2013-05-18 03:58:00,63.5,49.1,30.22,East,84,1.6,2.2,60,0.00,,,0.00,WX3IN1Plus v1.30,2013-05-18 07:58:00,
2013-05-18 04:03:00,63.6,50.0,30.22,SSW,196,0.0,2.2,62,0.00,,,0.00,WX3IN1Plus v1.30,2013-05-18 08:03:00,
2013-05-18 04:08:00,63.1,51.0,30.23,South,174,0.0,3.4,66,0.00,,,0.00,WX3IN1Plus v1.30,2013-05-18 08:08:00,
2013-05-18 04:13:00,62.8,51.2,30.23,South,174,0.0,0.0,67,0.00,,,0.00,WX3IN1Plus v1.30,2013-05-18 08:13:00,
2013-05-18 04:18:00,62.6,51.2,30.23,South,174,0.0,0.0,67,0.00,,,0.00,WX3IN1Plus v1.30,2013-05-18 08:18:00,
2013-05-18 04:23:00,62.4,51.8,30.23,South,174,0.0,0.0,69,0.00,,,0.00,WX3IN1Plus v1.30,2013-05-18 08:23:00,
2013-05-18 04:28:00,62.0,51.6,30.23,South,174,0.0,0.0,70,0.00,,,0.00,WX3IN1Plus v1.30,2013-05-18 08:28:00,
2013-05-18 04:33:00,61.7,52.8,30.23,South,174,0.0,0.0,73,0.00,,,0.00,WX3IN1Plus v1.30,2013-05-18 08:33:00,
2013-05-18 04:38:00,61.5,52.3,30.23,South,174,0.0,0.0,73,0.00,,,0.00,WX3IN1Plus v1.30,2013-05-18 08:38:00,
2013-05-18 04:43:00,61.3,51.6,30.23,South,174,0.0,0.0,71,0.00,,,0.00,WX3IN1Plus v1.30,2013-05-18 08:43:00,
2013-05-18 04:48:00,61.0,51.6,30.23,South,174,0.0,0.0,72,0.00,,,0.00,WX3IN1Plus v1.30,2013-05-18 08:48:00,
2013-05-18 04:53:00,60.8,51.2,30.23,South,174,0.0,0.0,72,0.00,,,0.00,WX3IN1Plus v1.30,2013-05-18 08:53:00,
2013-05-18 04:58:00,60.7,51.2,30.23,South,174,0.0,0.7,72,0.00,,,0.00,WX3IN1Plus v1.30,2013-05-18 08:58:00,
2013-05-18 05:03:00,60.5,50.7,30.23,South,174,0.0,0.7,71,0.00,,,0.00,WX3IN1Plus v1.30,2013-05-18 09:03:00,
2013-05-18 05:08:00,60.7,51.2,30.23,South,174,0.0,0.0,72,0.00,,,0.00,WX3IN1Plus v1.30,2013-05-18 09:08:00,
2013-05-18 05:13:00,60.6,51.0,30.23,SW,230,0.6,2.3,72,0.00,,,0.00,WX3IN1Plus v1.30,2013-05-18 09:13:00,
2013-05-18 05:18:00,60.5,51.0,30.23,South,189,1.8,2.6,72,0.00,,,0.00,WX3IN1Plus v1.30,2013-05-18 09:18:00,
2013-05-18 05:23:00,60.4,51.0,30.23,SW,223,1.3,5.3,72,0.00,,,0.00,WX3IN1Plus v1.30,2013-05-18 09:23:00,
2013-05-18 05:28:00,60.6,51.6,30.23,SE,143,0.0,4.2,73,0.00,,,0.00,WX3IN1Plus v1.30,2013-05-18 09:28:00,
2013-05-18 05:33:00,60.8,51.8,30.23,South,180,0.0,3.7,73,0.00,,,0.00,WX3IN1Plus v1.30,2013-05-18 09:33:00,
2013-05-18 05:38:00,60.7,52.1,30.23,SSE,163,1.4,1.6,74,0.00,,,0.00,WX3IN1Plus v1.30,2013-05-18 09:38:00,
2013-05-18 05:43:00,60.8,52.1,30.23,SW,219,0.8,2.6,74,0.00,,,0.00,WX3IN1Plus v1.30,2013-05-18 09:43:00,
2013-05-18 05:48:00,60.7,52.1,30.24,SW,223,0.0,3.2,74,0.00,,,0.00,WX3IN1Plus v1.30,2013-05-18 09:48:00,
2013-05-18 05:53:00,60.6,51.8,30.24,SW,223,0.0,0.0,74,0.00,,,0.00,WX3IN1Plus v1.30,2013-05-18 09:53:00,
2013-05-18 05:58:00,60.8,52.3,30.24,SSW,205,0.0,5.0,75,0.00,,,0.00,WX3IN1Plus v1.30,2013-05-18 09:58:00,
2013-05-18 06:03:00,60.7,52.3,30.24,SSW,205,0.0,0.0,75,0.00,,,0.00,WX3IN1Plus v1.30,2013-05-18 10:03:00,
2013-05-18 06:08:00,60.7,52.3,30.25,ESE,120,0.0,0.8,75,0.00,,,0.00,WX3IN1Plus v1.30,2013-05-18 10:08:00,
2013-05-18 06:13:00,60.7,52.3,30.25,ESE,120,0.0,0.0,75,0.00,,,0.00,WX3IN1Plus v1.30,2013-05-18 10:13:00,
2013-05-18 06:18:00,60.6,52.7,30.25,ESE,120,0.0,0.0,76,0.00,,,0.00,WX3IN1Plus v1.30,2013-05-18 10:18:00,
2013-05-18 06:23:00,60.7,52.8,30.25,ENE,71,0.0,0.5,76,0.00,,,0.00,WX3IN1Plus v1.30,2013-05-18 10:23:00,
2013-05-18 06:28:00,60.9,52.3,30.25,SE,136,1.1,4.2,75,0.00,,,0.00,WX3IN1Plus v1.30,2013-05-18 10:28:00,
2013-05-18 06:33:00,61.1,52.7,30.25,ENE,64,0.0,2.6,75,0.00,,,0.00,WX3IN1Plus v1.30,2013-05-18 10:33:00,
2013-05-18 06:38:00,61.3,52.7,30.25,South,189,1.7,3.2,74,0.00,,,0.00,WX3IN1Plus v1.30,2013-05-18 10:38:00,
2013-05-18 06:43:00,61.6,52.8,30.25,WSW,257,5.6,8.1,74,0.00,,,0.00,WX3IN1Plus v1.30,2013-05-18 10:43:00,
2013-05-18 06:48:00,61.7,52.8,30.25,SSW,194,1.6,8.1,73,0.00,,,0.00,WX3IN1Plus v1.30,2013-05-18 10:48:00,
2013-05-18 06:53:00,62.0,52.3,30.25,West,272,2.1,4.7,72,0.00,,,0.00,WX3IN1Plus v1.30,2013-05-18 10:53:00,
2013-05-18 06:58:00,62.2,52.7,30.25,SSW,212,4.0,6.2,72,0.00,,,0.00,WX3IN1Plus v1.30,2013-05-18 10:58:00,
2013-05-18 07:03:00,62.1,52.7,30.25,ESE,109,1.9,5.2,72,0.00,,,0.00,WX3IN1Plus v1.30,2013-05-18 11:03:00,
2013-05-18 07:08:00,62.5,52.8,30.25,South,172,2.4,5.2,72,0.00,,,0.00,WX3IN1Plus v1.30,2013-05-18 11:08:00,
2013-05-18 07:13:00,62.5,52.8,30.26,SSE,158,1.3,4.2,72,0.00,,,0.00,WX3IN1Plus v1.30,2013-05-18 11:13:00,
2013-05-18 07:18:00,62.6,53.2,30.25,SW,230,0.2,3.7,72,0.00,,,0.00,WX3IN1Plus v1.30,2013-05-18 11:18:00,
2013-05-18 07:23:00,62.7,53.2,30.25,West,264,3.0,4.1,72,0.00,,,0.00,WX3IN1Plus v1.30,2013-05-18 11:23:00,
2013-05-18 07:28:00,63.0,53.6,30.25,WSW,248,2.6,6.8,72,0.00,,,0.00,WX3IN1Plus v1.30,2013-05-18 11:28:00,
2013-05-18 07:33:00,62.9,53.2,30.25,SE,143,0.0,4.0,72,0.00,,,0.00,WX3IN1Plus v1.30,2013-05-18 11:33:00,
2013-05-18 07:38:00,63.2,53.6,30.25,West,268,4.2,7.7,71,0.00,,,0.00,WX3IN1Plus v1.30,2013-05-18 11:38:00,
2013-05-18 07:43:00,63.5,53.2,30.25,NNE,22,0.0,5.7,70,0.00,,,0.00,WX3IN1Plus v1.30,2013-05-18 11:43:00,
2013-05-18 07:48:00,63.5,53.2,30.26,SW,225,1.2,5.9,70,0.00,,,0.00,WX3IN1Plus v1.30,2013-05-18 11:48:00,
2013-05-18 07:53:00,63.9,52.7,30.25,SW,222,0.0,7.9,68,0.00,,,0.00,WX3IN1Plus v1.30,2013-05-18 11:53:00,
2013-05-18 07:58:00,63.9,52.3,30.25,South,171,0.8,6.8,67,0.00,,,0.00,WX3IN1Plus v1.30,2013-05-18 11:58:00,
2013-05-18 08:03:00,64.2,52.7,30.25,WSW,241,1.3,6.2,67,0.00,,,0.00,WX3IN1Plus v1.30,2013-05-18 12:03:00,
2013-05-18 08:08:00,64.3,52.1,30.25,East,101,0.3,7.1,66,0.00,,,0.00,WX3IN1Plus v1.30,2013-05-18 12:08:00,
2013-05-18 08:13:00,64.4,52.1,30.26,SW,225,3.7,10.6,65,0.00,,,0.00,WX3IN1Plus v1.30,2013-05-18 12:13:00,
2013-05-18 08:18:00,64.6,51.8,30.26,WSW,257,2.9,7.6,64,0.00,,,0.00,WX3IN1Plus v1.30,2013-05-18 12:18:00,
2013-05-18 08:23:00,65.0,52.7,30.26,East,87,0.8,6.9,65,0.00,,,0.00,WX3IN1Plus v1.30,2013-05-18 12:23:00,
2013-05-18 08:28:00,65.3,52.1,30.26,South,175,1.8,6.6,63,0.00,,,0.00,WX3IN1Plus v1.30,2013-05-18 12:28:00,
2013-05-18 08:33:00,65.3,51.6,30.26,SW,229,0.6,9.4,62,0.00,,,0.00,WX3IN1Plus v1.30,2013-05-18 12:33:00,
2013-05-18 08:38:00,65.2,51.6,30.26,West,260,4.9,6.5,62,0.00,,,0.00,WX3IN1Plus v1.30,2013-05-18 12:38:00,
2013-05-18 08:43:00,65.1,51.2,30.26,South,182,0.9,7.0,62,0.00,,,0.00,WX3IN1Plus v1.30,2013-05-18 12:43:00,
2013-05-18 08:48:00,65.3,51.6,30.27,South,191,2.4,3.9,62,0.00,,,0.00,WX3IN1Plus v1.30,2013-05-18 12:48:00,
2013-05-18 08:53:00,65.1,51.0,30.27,WSW,251,2.7,9.0,61,0.00,,,0.00,WX3IN1Plus v1.30,2013-05-18 12:53:00,
2013-05-18 08:58:00,65.4,51.2,30.27,SSE,156,3.8,8.9,61,0.00,,,0.00,WX3IN1Plus v1.30,2013-05-18 12:58:00,
2013-05-18 09:03:00,65.0,51.2,30.27,SSW,195,1.3,8.0,62,0.00,,,0.00,WX3IN1Plus v1.30,2013-05-18 13:03:00,
2013-05-18 09:08:00,65.1,51.2,30.27,SSE,165,0.4,5.7,62,0.00,,,0.00,WX3IN1Plus v1.30,2013-05-18 13:08:00,
2013-05-18 09:13:00,65.2,51.2,30.27,NE,46,0.4,9.6,61,0.00,,,0.00,WX3IN1Plus v1.30,2013-05-18 13:13:00,
2013-05-18 09:18:00,65.3,51.2,30.27,West,271,3.2,8.8,61,0.00,,,0.00,WX3IN1Plus v1.30,2013-05-18 13:18:00,
2013-05-18 09:23:00,65.3,51.6,30.27,SW,236,0.0,8.0,62,0.00,,,0.00,WX3IN1Plus v1.30,2013-05-18 13:23:00,
2013-05-18 09:28:00,65.6,51.6,30.27,West,261,1.9,8.8,61,0.00,,,0.00,WX3IN1Plus v1.30,2013-05-18 13:28:00,
2013-05-18 09:33:00,65.7,52.1,30.27,SSW,198,4.2,8.2,62,0.00,,,0.00,WX3IN1Plus v1.30,2013-05-18 13:33:00,
2013-05-18 09:38:00,65.9,52.1,30.27,WSW,246,2.2,7.0,62,0.00,,,0.00,WX3IN1Plus v1.30,2013-05-18 13:38:00,
2013-05-18 09:43:00,66.0,52.1,30.27,SW,234,3.2,10.1,62,0.00,,,0.00,WX3IN1Plus v1.30,2013-05-18 13:43:00,
2013-05-18 09:48:00,66.1,52.3,30.26,West,265,5.0,7.8,62,0.00,,,0.00,WX3IN1Plus v1.30,2013-05-18 13:48:00,
2013-05-18 09:53:00,66.3,52.3,30.26,WSW,239,3.1,9.6,62,0.00,,,0.00,WX3IN1Plus v1.30,2013-05-18 13:53:00,
2013-05-18 09:58:00,66.5,52.7,30.26,West,272,1.4,6.5,62,0.00,,,0.00,WX3IN1Plus v1.30,2013-05-18 13:58:00,
2013-05-18 10:03:00,66.9,52.8,30.26,WSW,247,6.1,9.0,62,0.00,,,0.00,WX3IN1Plus v1.30,2013-05-18 14:03:00,
2013-05-18 10:08:00,67.2,53.2,30.26,SE,132,2.9,8.7,61,0.00,,,0.00,WX3IN1Plus v1.30,2013-05-18 14:08:00,
2013-05-18 10:13:00,67.4,53.6,30.26,SW,232,7.3,7.8,62,0.00,,,0.00,WX3IN1Plus v1.30,2013-05-18 14:13:00,
2013-05-18 10:18:00,67.1,54.1,30.25,South,185,4.4,9.8,63,0.00,,,0.00,WX3IN1Plus v1.30,2013-05-18 14:18:00,
2013-05-18 10:23:00,67.1,54.1,30.26,West,267,2.9,10.0,63,0.00,,,0.00,WX3IN1Plus v1.30,2013-05-18 14:23:00,
2013-05-18 10:28:00,67.0,53.7,30.26,West,265,2.2,7.0,63,0.00,,,0.00,WX3IN1Plus v1.30,2013-05-18 14:28:00,
2013-05-18 10:33:00,66.9,52.8,30.26,WNW,291,4.2,9.4,62,0.00,,,0.00,WX3IN1Plus v1.30,2013-05-18 14:33:00,
2013-05-18 10:38:00,66.2,52.3,30.26,WSW,237,3.1,9.8,62,0.00,,,0.00,WX3IN1Plus v1.30,2013-05-18 14:38:00,
2013-05-18 10:43:00,66.4,53.2,30.26,West,264,3.9,11.1,63,0.00,,,0.00,WX3IN1Plus v1.30,2013-05-18 14:43:00,
2013-05-18 10:48:00,66.3,52.8,30.26,WSW,243,0.0,6.3,63,0.00,,,0.00,WX3IN1Plus v1.30,2013-05-18 14:48:00,
2013-05-18 10:53:00,66.4,53.2,30.26,WNW,291,2.3,8.5,63,0.00,,,0.00,WX3IN1Plus v1.30,2013-05-18 14:53:00,
2013-05-18 10:58:00,66.4,52.7,30.27,NE,56,3.1,6.0,62,0.00,,,0.00,WX3IN1Plus v1.30,2013-05-18 14:58:00,
2013-05-18 11:03:00,66.7,52.8,30.27,SW,229,4.2,8.5,62,0.00,,,0.00,WX3IN1Plus v1.30,2013-05-18 15:03:00,
2013-05-18 11:08:00,66.7,52.7,30.27,WSW,257,5.1,8.1,61,0.00,,,0.00,WX3IN1Plus v1.30,2013-05-18 15:08:00,
2013-05-18 11:13:00,66.6,52.7,30.27,SSW,198,0.0,7.0,61,0.00,,,0.00,WX3IN1Plus v1.30,2013-05-18 15:13:00,
2013-05-18 11:18:00,66.3,52.1,30.27,WNW,286,0.0,7.2,61,0.00,,,0.00,WX3IN1Plus v1.30,2013-05-18 15:18:00,
2013-05-18 11:23:00,66.2,51.6,30.28,WNW,284,1.6,3.8,60,0.00,,,0.00,WX3IN1Plus v1.30,2013-05-18 15:23:00,
2013-05-18 11:28:00,66.2,51.0,30.28,South,170,0.0,4.7,59,0.00,,,0.00,WX3IN1Plus v1.30,2013-05-18 15:28:00,
2013-05-18 11:33:00,66.1,51.6,30.28,WSW,248,0.0,2.7,60,0.00,,,0.00,WX3IN1Plus v1.30,2013-05-18 15:33:00,
2013-05-18 11:38:00,66.0,51.2,30.28,SSW,213,0.0,3.3,60,0.00,,,0.00,WX3IN1Plus v1.30,2013-05-18 15:38:00,
2013-05-18 11:43:00,65.9,51.2,30.27,SW,234,4.9,6.5,60,0.00,,,0.00,WX3IN1Plus v1.30,2013-05-18 15:43:00,
2013-05-18 11:48:00,65.4,50.7,30.27,SSE,164,0.5,6.9,60,0.00,,,0.00,WX3IN1Plus v1.30,2013-05-18 15:48:00,
2013-05-18 11:53:00,65.6,51.6,30.26,SW,236,2.1,6.5,61,0.00,,,0.00,WX3IN1Plus v1.30,2013-05-18 15:53:00,
2013-05-18 11:58:00,65.3,51.2,30.26,SW,217,2.7,7.9,61,0.00,,,0.00,WX3IN1Plus v1.30,2013-05-18 15:58:00,
2013-05-18 12:03:00,65.3,51.6,30.26,West,281,0.8,7.5,62,0.00,,,0.00,WX3IN1Plus v1.30,2013-05-18 16:03:00,
2013-05-18 12:08:00,65.6,51.8,30.25,SW,234,0.8,2.9,62,0.00,,,0.00,WX3IN1Plus v1.30,2013-05-18 16:08:00,
2013-05-18 12:13:00,65.7,52.1,30.25,WNW,296,2.6,7.5,62,0.00,,,0.00,WX3IN1Plus v1.30,2013-05-18 16:13:00,
2013-05-18 12:18:00,65.6,52.3,30.25,SSE,164,0.8,8.3,63,0.00,,,0.00,WX3IN1Plus v1.30,2013-05-18 16:18:00,
2013-05-18 12:23:00,65.8,52.7,30.25,WNW,299,1.9,7.2,63,0.00,,,0.00,WX3IN1Plus v1.30,2013-05-18 16:23:00,
2013-05-18 12:28:00,65.4,52.3,30.25,NW,309,1.9,8.2,64,0.00,,,0.00,WX3IN1Plus v1.30,2013-05-18 16:28:00,
2013-05-18 12:33:00,65.6,52.7,30.26,WSW,241,0.0,6.2,64,0.00,,,0.00,WX3IN1Plus v1.30,2013-05-18 16:33:00,
2013-05-18 12:38:00,65.6,53.2,30.26,West,265,0.0,3.3,65,0.00,,,0.00,WX3IN1Plus v1.30,2013-05-18 16:38:00,
2013-05-18 12:43:00,65.2,52.8,30.26,South,188,1.9,6.6,65,0.00,,,0.00,WX3IN1Plus v1.30,2013-05-18 16:43:00,
2013-05-18 12:48:00,65.6,53.2,30.26,SSW,199,0.5,4.2,65,0.00,,,0.00,WX3IN1Plus v1.30,2013-05-18 16:48:00,
2013-05-18 12:53:00,65.3,53.2,30.26,South,170,0.0,3.7,66,0.00,,,0.00,WX3IN1Plus v1.30,2013-05-18 16:53:00,
2013-05-18 12:58:00,65.3,53.7,30.26,ENE,78,0.0,4.7,67,0.00,,,0.00,WX3IN1Plus v1.30,2013-05-18 16:58:00,
2013-05-18 13:03:00,65.4,53.7,30.26,WSW,246,0.0,4.4,67,0.00,,,0.00,WX3IN1Plus v1.30,2013-05-18 17:03:00,
2013-05-18 13:08:00,65.4,53.2,30.26,SW,225,0.9,7.5,66,0.00,,,0.00,WX3IN1Plus v1.30,2013-05-18 17:08:00,
2013-05-18 13:13:00,65.3,53.2,30.26,South,174,1.8,5.0,66,0.00,,,0.00,WX3IN1Plus v1.30,2013-05-18 17:13:00,
2013-05-18 13:18:00,65.2,53.7,30.26,SW,219,1.0,6.2,67,0.00,,,0.00,WX3IN1Plus v1.30,2013-05-18 17:18:00,
2013-05-18 13:23:00,65.0,53.7,30.26,SW,216,0.0,3.4,68,0.00,,,0.00,WX3IN1Plus v1.30,2013-05-18 17:23:00,
2013-05-18 13:28:00,64.9,53.6,30.26,WSW,257,0.8,4.5,68,0.00,,,0.00,WX3IN1Plus v1.30,2013-05-18 17:28:00,
2013-05-18 13:33:00,64.9,54.1,30.25,South,178,0.0,2.4,69,0.00,,,0.00,WX3IN1Plus v1.30,2013-05-18 17:33:00,
2013-05-18 13:38:00,65.1,54.3,30.25,WSW,248,0.9,6.0,69,0.00,,,0.00,WX3IN1Plus v1.30,2013-05-18 17:38:00,
2013-05-18 13:43:00,64.8,53.6,30.25,WSW,254,2.1,6.1,68,0.00,,,0.00,WX3IN1Plus v1.30,2013-05-18 17:43:00,
2013-05-18 13:48:00,64.6,54.1,30.26,SSW,210,0.9,6.9,69,0.00,,,0.00,WX3IN1Plus v1.30,2013-05-18 17:48:00,
2013-05-18 13:53:00,64.7,54.1,30.26,SW,225,0.0,3.8,69,0.00,,,0.00,WX3IN1Plus v1.30,2013-05-18 17:53:00,
2013-05-18 13:58:00,64.7,54.3,30.25,WSW,250,0.0,6.0,70,0.00,,,0.00,WX3IN1Plus v1.30,2013-05-18 17:58:00,
2013-05-18 14:03:00,64.3,54.3,30.26,SW,233,0.6,4.1,71,0.00,,,0.00,WX3IN1Plus v1.30,2013-05-18 18:03:00,
2013-05-18 14:08:00,64.4,55.4,30.26,SSW,208,0.0,6.0,73,0.00,,,0.00,WX3IN1Plus v1.30,2013-05-18 18:08:00,
2013-05-18 14:13:00,64.3,55.4,30.26,WSW,237,1.4,5.7,74,0.00,,,0.00,WX3IN1Plus v1.30,2013-05-18 18:13:00,
2013-05-18 14:18:00,63.7,55.9,30.26,SW,232,7.8,9.5,76,0.00,,,0.00,WX3IN1Plus v1.30,2013-05-18 18:18:00,
2013-05-18 14:23:00,63.0,55.7,30.26,SW,234,2.2,8.3,78,0.00,,,0.00,WX3IN1Plus v1.30,2013-05-18 18:23:00,
2013-05-18 14:28:00,62.1,55.7,30.26,West,262,0.6,7.3,80,0.00,,,0.00,WX3IN1Plus v1.30,2013-05-18 18:28:00,
2013-05-18 14:33:00,61.6,55.2,30.26,South,185,1.5,5.7,80,0.00,,,0.00,WX3IN1Plus v1.30,2013-05-18 18:33:00,
2013-05-18 14:38:00,61.0,54.6,30.26,SE,137,0.0,6.9,80,0.00,,,0.00,WX3IN1Plus v1.30,2013-05-18 18:38:00,
2013-05-18 14:43:00,60.9,54.3,30.25,SSE,161,0.4,2.6,80,0.00,,,0.00,WX3IN1Plus v1.30,2013-05-18 18:43:00,
2013-05-18 14:48:00,60.8,54.3,30.25,SE,140,0.0,1.6,80,0.00,,,0.00,WX3IN1Plus v1.30,2013-05-18 18:48:00,
2013-05-18 14:53:00,61.0,54.8,30.25,South,174,0.0,3.2,81,0.00,,,0.00,WX3IN1Plus v1.30,2013-05-18 18:53:00,
2013-05-18 14:58:00,61.1,54.8,30.25,South,191,0.9,2.2,81,0.00,,,0.00,WX3IN1Plus v1.30,2013-05-18 18:58:00,
2013-05-18 15:03:00,61.1,54.8,30.25,WSW,241,0.0,2.7,81,0.00,,,0.00,WX3IN1Plus v1.30,2013-05-18 19:03:00,
2013-05-18 15:08:00,61.3,54.8,30.25,South,172,0.0,2.9,80,0.00,,,0.00,WX3IN1Plus v1.30,2013-05-18 19:08:00,
2013-05-18 15:13:00,61.5,54.8,30.25,South,175,1.3,3.3,80,0.00,,,0.00,WX3IN1Plus v1.30,2013-05-18 19:13:00,
2013-05-18 15:18:00,61.6,55.2,30.25,SSW,210,0.0,1.3,80,0.00,,,0.00,WX3IN1Plus v1.30,2013-05-18 19:18:00,
2013-05-18 15:23:00,61.6,55.2,30.25,SSW,208,0.5,2.3,80,0.00,,,0.00,WX3IN1Plus v1.30,2013-05-18 19:23:00,
2013-05-18 15:28:00,61.8,54.8,30.25,SSE,147,0.0,2.2,79,0.00,,,0.00,WX3IN1Plus v1.30,2013-05-18 19:28:00,
2013-05-18 15:33:00,62.1,55.2,30.25,SSW,212,0.0,2.1,79,0.00,,,0.00,WX3IN1Plus v1.30,2013-05-18 19:33:00,
2013-05-18 15:38:00,62.2,55.2,30.25,SE,140,0.3,0.9,79,0.00,,,0.00,WX3IN1Plus v1.30,2013-05-18 19:38:00,
2013-05-18 15:43:00,62.2,55.2,30.24,SE,140,0.0,0.6,79,0.00,,,0.00,WX3IN1Plus v1.30,2013-05-18 19:43:00,
2013-05-18 15:48:00,62.3,55.4,30.24,South,170,0.0,2.1,79,0.00,,,0.00,WX3IN1Plus v1.30,2013-05-18 19:48:00,
2013-05-18 15:53:00,62.6,55.7,30.25,South,170,0.0,0.4,79,0.00,,,0.00,WX3IN1Plus v1.30,2013-05-18 19:53:00,
2013-05-18 15:58:00,62.7,55.7,30.25,South,170,0.0,0.0,79,0.00,,,0.00,WX3IN1Plus v1.30,2013-05-18 19:58:00,
2013-05-18 16:03:00,62.5,55.2,30.25,SSW,196,0.8,3.5,78,0.00,,,0.00,WX3IN1Plus v1.30,2013-05-18 20:03:00,
2013-05-18 16:08:00,62.8,55.4,30.24,SSW,196,0.0,1.1,78,0.00,,,0.00,WX3IN1Plus v1.30,2013-05-18 20:08:00,
2013-05-18 16:13:00,62.8,55.2,30.24,SSW,196,0.0,0.0,77,0.00,,,0.00,WX3IN1Plus v1.30,2013-05-18 20:13:00,
2013-05-18 16:18:00,63.0,55.4,30.24,South,171,0.0,1.7,77,0.00,,,0.00,WX3IN1Plus v1.30,2013-05-18 20:18:00,
2013-05-18 16:23:00,62.8,55.2,30.24,SSW,198,1.4,1.6,77,0.00,,,0.00,WX3IN1Plus v1.30,2013-05-18 20:23:00,
2013-05-18 16:28:00,62.8,54.3,30.24,South,172,1.4,2.7,75,0.00,,,0.00,WX3IN1Plus v1.30,2013-05-18 20:28:00,
2013-05-18 16:33:00,62.8,54.3,30.24,SSE,154,0.0,3.2,75,0.00,,,0.00,WX3IN1Plus v1.30,2013-05-18 20:33:00,
2013-05-18 16:38:00,63.0,54.6,30.24,South,178,2.6,3.8,75,0.00,,,0.00,WX3IN1Plus v1.30,2013-05-18 20:38:00,
2013-05-18 16:43:00,63.1,54.6,30.24,SSE,156,0.0,2.6,75,0.00,,,0.00,WX3IN1Plus v1.30,2013-05-18 20:43:00,
2013-05-18 16:48:00,63.1,54.6,30.23,South,191,0.0,2.9,75,0.00,,,0.00,WX3IN1Plus v1.30,2013-05-18 20:48:00,
2013-05-18 16:53:00,63.2,54.8,30.23,SSE,157,1.8,5.2,75,0.00,,,0.00,WX3IN1Plus v1.30,2013-05-18 20:53:00,
2013-05-18 16:58:00,63.4,54.6,30.24,South,189,3.1,6.5,74,0.00,,,0.00,WX3IN1Plus v1.30,2013-05-18 20:58:00,
2013-05-18 17:03:00,63.7,55.2,30.24,SSW,195,0.7,3.7,74,0.00,,,0.00,WX3IN1Plus v1.30,2013-05-18 21:03:00,
2013-05-18 17:08:00,64.0,54.8,30.24,East,101,0.0,3.7,73,0.00,,,0.00,WX3IN1Plus v1.30,2013-05-18 21:08:00,
2013-05-18 17:13:00,63.8,54.3,30.24,SW,217,1.4,4.7,72,0.00,,,0.00,WX3IN1Plus v1.30,2013-05-18 21:13:00,
2013-05-18 17:18:00,63.8,54.3,30.24,SSE,157,0.0,5.5,72,0.00,,,0.00,WX3IN1Plus v1.30,2013-05-18 21:18:00,
2013-05-18 17:23:00,63.8,54.3,30.24,South,184,2.4,4.9,72,0.00,,,0.00,WX3IN1Plus v1.30,2013-05-18 21:23:00,
2013-05-18 17:28:00,63.3,53.7,30.24,NE,45,0.6,3.6,72,0.00,,,0.00,WX3IN1Plus v1.30,2013-05-18 21:28:00,
2013-05-18 17:33:00,63.4,54.3,30.25,SE,127,0.0,4.4,73,0.00,,,0.00,WX3IN1Plus v1.30,2013-05-18 21:33:00,
2013-05-18 17:38:00,63.5,54.6,30.24,South,170,2.2,2.8,73,0.00,,,0.00,WX3IN1Plus v1.30,2013-05-18 21:38:00,
2013-05-18 17:43:00,63.4,54.3,30.24,SSE,158,1.8,4.8,73,0.00,,,0.00,WX3IN1Plus v1.30,2013-05-18 21:43:00,
2013-05-18 17:48:00,63.2,54.3,30.24,SSE,167,1.6,4.7,73,0.00,,,0.00,WX3IN1Plus v1.30,2013-05-18 21:48:00,
2013-05-18 17:53:00,63.3,54.3,30.24,ENE,78,2.0,4.2,73,0.00,,,0.00,WX3IN1Plus v1.30,2013-05-18 21:53:00,
2013-05-18 17:58:00,63.1,54.1,30.24,SSW,196,1.6,4.5,73,0.00,,,0.00,WX3IN1Plus v1.30,2013-05-18 21:58:00,
2013-05-18 18:03:00,63.1,54.1,30.24,East,90,1.2,7.4,73,0.00,,,0.00,WX3IN1Plus v1.30,2013-05-18 22:03:00,
2013-05-18 18:08:00,63.1,54.1,30.24,SSW,194,0.9,7.2,73,0.00,,,0.00,WX3IN1Plus v1.30,2013-05-18 22:08:00,
2013-05-18 18:13:00,63.0,54.1,30.24,NNE,19,0.0,4.4,73,0.00,,,0.00,WX3IN1Plus v1.30,2013-05-18 22:13:00,
2013-05-18 18:18:00,62.8,53.7,30.24,NE,52,1.2,3.3,73,0.00,,,0.00,WX3IN1Plus v1.30,2013-05-18 22:18:00,
2013-05-18 18:23:00,62.8,53.2,30.24,ENE,59,1.1,5.9,72,0.00,,,0.00,WX3IN1Plus v1.30,2013-05-18 22:23:00,
2013-05-18 18:28:00,62.7,53.7,30.24,South,181,1.4,4.3,73,0.00,,,0.00,WX3IN1Plus v1.30,2013-05-18 22:28:00,
2013-05-18 18:34:00,62.8,53.7,30.24,South,177,3.4,5.7,73,0.00,,,0.00,WX3IN1Plus v1.30,2013-05-18 22:34:00,
2013-05-18 18:39:00,62.6,53.7,30.24,South,187,1.6,4.7,73,0.00,,,0.00,WX3IN1Plus v1.30,2013-05-18 22:39:00,
2013-05-18 18:44:00,62.4,53.6,30.24,SSE,165,3.8,5.7,73,0.00,,,0.00,WX3IN1Plus v1.30,2013-05-18 22:44:00,
2013-05-18 18:49:00,62.3,53.7,30.24,South,178,5.5,5.9,74,0.00,,,0.00,WX3IN1Plus v1.30,2013-05-18 22:49:00,
2013-05-18 18:54:00,62.3,53.7,30.24,East,94,3.1,5.5,74,0.00,,,0.00,WX3IN1Plus v1.30,2013-05-18 22:54:00,
2013-05-18 18:59:00,62.1,53.6,30.24,West,267,1.4,4.5,74,0.00,,,0.00,WX3IN1Plus v1.30,2013-05-18 22:59:00,
2013-05-18 19:04:00,61.7,53.2,30.24,SE,129,0.0,5.2,74,0.00,,,0.00,WX3IN1Plus v1.30,2013-05-18 23:04:00,
2013-05-18 19:09:00,61.9,53.6,30.24,ESE,120,2.2,6.1,75,0.00,,,0.00,WX3IN1Plus v1.30,2013-05-18 23:09:00,
2013-05-18 19:14:00,61.8,53.6,30.25,ENE,70,3.2,5.7,75,0.00,,,0.00,WX3IN1Plus v1.30,2013-05-18 23:14:00,
2013-05-18 19:19:00,61.5,52.8,30.25,NE,43,0.0,5.0,75,0.00,,,0.00,WX3IN1Plus v1.30,2013-05-18 23:19:00,
2013-05-18 19:24:00,61.6,53.7,30.25,South,177,2.3,5.4,76,0.00,,,0.00,WX3IN1Plus v1.30,2013-05-18 23:24:00,
2013-05-18 19:29:00,61.7,54.1,30.25,SSE,163,0.0,4.5,76,0.00,,,0.00,WX3IN1Plus v1.30,2013-05-18 23:29:00,
2013-05-18 19:34:00,61.5,53.6,30.25,SSW,199,0.6,1.9,76,0.00,,,0.00,WX3IN1Plus v1.30,2013-05-18 23:34:00,
2013-05-18 19:39:00,61.3,53.6,30.25,West,260,5.9,7.3,76,0.00,,,0.00,WX3IN1Plus v1.30,2013-05-18 23:39:00,
2013-05-18 19:44:00,61.3,53.7,30.25,SSW,194,0.6,6.0,77,0.00,,,0.00,WX3IN1Plus v1.30,2013-05-18 23:44:00,
2013-05-18 19:49:00,61.3,53.7,30.25,NE,40,0.0,1.9,77,0.00,,,0.00,WX3IN1Plus v1.30,2013-05-18 23:49:00,
2013-05-18 19:54:00,61.2,54.1,30.25,South,177,5.7,5.7,78,0.00,,,0.00,WX3IN1Plus v1.30,2013-05-18 23:54:00,
2013-05-18 19:59:00,61.3,54.1,30.25,East,90,1.1,6.0,78,0.00,,,0.00,WX3IN1Plus v1.30,2013-05-18 23:59:00,
2013-05-18 20:04:00,61.0,53.7,30.25,SSE,165,0.0,5.3,78,0.00,,,0.00,WX3IN1Plus v1.30,2013-05-19 00:04:00,
2013-05-18 20:09:00,61.0,53.7,30.25,ENE,68,1.9,3.6,78,0.00,,,0.00,WX3IN1Plus v1.30,2013-05-19 00:09:00,
2013-05-18 20:14:00,61.1,54.1,30.24,SW,223,0.9,6.7,79,0.00,,,0.00,WX3IN1Plus v1.30,2013-05-19 00:14:00,
2013-05-18 20:19:00,60.8,53.7,30.25,South,177,0.0,4.5,79,0.00,,,0.00,WX3IN1Plus v1.30,2013-05-19 00:19:00,
2013-05-18 20:24:00,60.7,53.7,30.24,East,94,4.1,5.2,79,0.00,,,0.00,WX3IN1Plus v1.30,2013-05-19 00:24:00,
2013-05-18 20:29:00,60.7,54.3,30.25,East,95,0.0,4.9,80,0.00,,,0.00,WX3IN1Plus v1.30,2013-05-19 00:29:00,
2013-05-18 20:34:00,60.8,54.3,30.25,NNE,28,0.8,4.7,80,0.00,,,0.00,WX3IN1Plus v1.30,2013-05-19 00:34:00,
2013-05-18 20:39:00,60.7,54.6,30.25,SE,143,0.8,2.8,81,0.00,,,0.00,WX3IN1Plus v1.30,2013-05-19 00:39:00,
2013-05-18 20:44:00,60.4,54.6,30.25,SE,130,0.0,5.0,82,0.00,,,0.00,WX3IN1Plus v1.30,2013-05-19 00:44:00,
2013-05-18 20:49:00,60.4,54.6,30.25,SSE,150,0.0,2.7,82,0.00,,,0.00,WX3IN1Plus v1.30,2013-05-19 00:49:00,
2013-05-18 20:54:00,60.2,54.6,30.25,SSE,150,0.0,0.0,83,0.00,,,0.00,WX3IN1Plus v1.30,2013-05-19 00:54:00,
2013-05-18 20:59:00,60.2,54.6,30.25,SSE,150,0.0,0.0,83,0.00,,,0.00,WX3IN1Plus v1.30,2013-05-19 00:59:00,
2013-05-18 21:04:00,59.9,54.8,30.25,SSE,150,0.0,0.0,84,0.00,,,0.00,WX3IN1Plus v1.30,2013-05-19 01:04:00,
2013-05-18 21:09:00,60.0,54.8,30.25,East,92,0.0,3.9,84,0.00,,,0.00,WX3IN1Plus v1.30,2013-05-19 01:09:00,
2013-05-18 21:14:00,60.0,55.2,30.25,East,92,0.0,0.0,85,0.00,,,0.00,WX3IN1Plus v1.30,2013-05-19 01:14:00,
2013-05-18 21:19:00,60.0,55.2,30.25,NNE,21,0.0,3.6,85,0.00,,,0.00,WX3IN1Plus v1.30,2013-05-19 01:19:00,
2013-05-18 21:24:00,59.5,54.6,30.25,NE,49,0.5,2.1,85,0.00,,,0.00,WX3IN1Plus v1.30,2013-05-19 01:24:00,
2013-05-18 21:29:00,59.6,54.8,30.25,ENE,77,0.9,3.5,85,0.00,,,0.00,WX3IN1Plus v1.30,2013-05-19 01:29:00,
2013-05-18 21:34:00,59.6,55.2,30.25,NNE,29,0.0,2.3,86,0.00,,,0.00,WX3IN1Plus v1.30,2013-05-19 01:34:00,
2013-05-18 21:39:00,59.5,54.8,30.26,NE,46,0.0,4.0,86,0.00,,,0.00,WX3IN1Plus v1.30,2013-05-19 01:39:00,
2013-05-18 21:44:00,59.5,54.8,30.26,SE,129,0.0,2.7,86,0.00,,,0.00,WX3IN1Plus v1.30,2013-05-19 01:44:00,
2013-05-18 21:49:00,59.3,54.8,30.26,SSW,196,0.0,2.7,86,0.00,,,0.00,WX3IN1Plus v1.30,2013-05-19 01:49:00,
2013-05-18 21:54:00,59.3,54.8,30.26,ENE,78,0.0,4.2,86,0.00,,,0.00,WX3IN1Plus v1.30,2013-05-19 01:54:00,
2013-05-18 21:59:00,59.4,54.8,30.26,ENE,78,0.0,0.0,86,0.00,,,0.00,WX3IN1Plus v1.30,2013-05-19 01:59:00,
2013-05-18 22:04:00,59.5,54.8,30.26,ENE,75,1.4,5.3,86,0.00,,,0.00,WX3IN1Plus v1.30,2013-05-19 02:04:00,
2013-05-18 22:09:00,59.4,54.8,30.26,NNE,14,0.8,2.7,86,0.00,,,0.00,WX3IN1Plus v1.30,2013-05-19 02:09:00,
2013-05-18 22:14:00,59.4,54.8,30.26,North,9,0.0,1.3,86,0.00,,,0.00,WX3IN1Plus v1.30,2013-05-19 02:14:00,
2013-05-18 22:19:00,59.4,54.8,30.26,ENE,73,0.0,4.5,86,0.00,,,0.00,WX3IN1Plus v1.30,2013-05-19 02:19:00,
2013-05-18 22:24:00,59.3,54.8,30.25,ENE,74,2.6,4.3,86,0.00,,,0.00,WX3IN1Plus v1.30,2013-05-19 02:24:00,
2013-05-18 22:29:00,59.5,55.2,30.25,NNE,32,0.0,2.7,87,0.00,,,0.00,WX3IN1Plus v1.30,2013-05-19 02:29:00,
2013-05-18 22:34:00,59.4,55.2,30.25,NNE,32,0.0,0.0,87,0.00,,,0.00,WX3IN1Plus v1.30,2013-05-19 02:34:00,
2013-05-18 22:39:00,59.5,55.2,30.25,ENE,74,0.0,2.2,87,0.00,,,0.00,WX3IN1Plus v1.30,2013-05-19 02:39:00,
2013-05-18 22:44:00,59.4,55.2,30.25,ENE,70,0.0,4.1,87,0.00,,,0.00,WX3IN1Plus v1.30,2013-05-19 02:44:00,
2013-05-18 22:49:00,59.3,55.2,30.25,ENE,78,0.8,2.1,87,0.00,,,0.00,WX3IN1Plus v1.30,2013-05-19 02:49:00,
2013-05-18 22:54:00,59.5,55.2,30.25,WNW,303,0.5,2.9,87,0.00,,,0.00,WX3IN1Plus v1.30,2013-05-19 02:54:00,
2013-05-18 22:59:00,59.4,55.2,30.25,NE,45,0.0,3.0,87,0.00,,,0.00,WX3IN1Plus v1.30,2013-05-19 02:59:00,
2013-05-18 23:04:00,59.3,55.2,30.25,NNE,22,1.2,2.1,87,0.00,,,0.00,WX3IN1Plus v1.30,2013-05-19 03:04:00,
2013-05-18 23:09:00,59.5,55.4,30.25,NE,52,0.0,1.6,88,0.00,,,0.00,WX3IN1Plus v1.30,2013-05-19 03:09:00,
2013-05-18 23:14:00,59.5,55.4,30.25,NE,52,0.0,0.0,88,0.00,,,0.00,WX3IN1Plus v1.30,2013-05-19 03:14:00,
2013-05-18 23:19:00,59.4,55.4,30.25,NE,52,0.0,0.0,88,0.00,,,0.00,WX3IN1Plus v1.30,2013-05-19 03:19:00,
2013-05-18 23:24:00,59.4,55.4,30.25,NE,52,0.0,0.0,88,0.00,,,0.00,WX3IN1Plus v1.30,2013-05-19 03:24:00,
2013-05-18 23:29:00,59.4,55.4,30.25,SSE,163,0.0,4.8,88,0.00,,,0.00,WX3IN1Plus v1.30,2013-05-19 03:29:00,
2013-05-18 23:34:00,59.4,55.4,30.25,East,99,0.4,2.9,88,0.00,,,0.00,WX3IN1Plus v1.30,2013-05-19 03:34:00,
2013-05-18 23:39:00,59.4,55.4,30.25,East,99,0.0,1.0,88,0.00,,,0.00,WX3IN1Plus v1.30,2013-05-19 03:39:00,
2013-05-18 23:44:00,59.5,55.4,30.25,East,99,0.0,0.0,88,0.00,,,0.00,WX3IN1Plus v1.30,2013-05-19 03:44:00,
2013-05-18 23:49:00,59.4,55.7,30.24,East,99,0.0,0.0,89,0.00,,,0.00,WX3IN1Plus v1.30,2013-05-19 03:49:00,
2013-05-18 23:54:00,59.4,55.7,30.25,East,99,0.0,0.0,89,0.00,,,0.00,WX3IN1Plus v1.30,2013-05-19 03:54:00,
2013-05-18 23:59:00,59.4,55.7,30.25,East,99,0.0,0.0,89,0.00,,,0.00,WX3IN1Plus v1.30,2013-05-19 03:59:00,